{"data":{"norad_id":39490,"epoch":"2026-09-20T04:40:10.561152Z","epoch_age_seconds":40618,"freshness":"FRESH","line1":"1 39490U 13078A   26263.19456668  .00001542  00000+0  11380-3 0  9995","line2":"2 39490  82.4152 168.2208 0011208 286.0235  73.9755 15.02573736692220","mean_motion":15.02573736,"eccentricity":0.0011208,"inclination_deg":82.4152,"raan_deg":168.2208,"arg_perigee_deg":286.0235,"mean_anomaly_deg":73.9755,"bstar":0.0001138,"rev_number":69222,"period_min":95.835563040881,"perigee_km":551.18828217021,"apogee_km":566.73848639161,"semimajor_km":6937.1003842809,"source":"CELESTRAK","updated_at":"2026-09-20T09:00:47.876728Z"}}